• In Austria
  • List of Countries
  • For 7 days
  • Water Temperature
  • Satellite Maps
  • Weather Map
  • News
  • Weather Widgets
  • user-avatar
    Login

    Hourly Weather Elbasan

    Today, 24 February, Saturday

    Time Temperature Precipitation Wind Pressure Humidity
    00:00 +6°C° 0 mm 4 mps 727 mmHg 82%
    01:00 +6°C° 0 mm 4 mps 727 mmHg 83%
    02:00 +6°C° 0 mm 4 mps 727 mmHg 82%
    03:00 +6°C° 0 mm 4 mps 727 mmHg 82%
    04:00 +6°C° 0 mm 4 mps 726 mmHg 81%
    05:00 +7°C° 0.4 mm 3 mps 727 mmHg 83%
    06:00 +7°C° 0.4 mm 3 mps 727 mmHg 85%
    07:00 +7°C° 0.4 mm 2 mps 727 mmHg 86%
    08:00 +8°C° 0.6 mm 2 mps 727 mmHg 85%
    09:00 +8°C° 0.6 mm 2 mps 727 mmHg 84%
    10:00 +9°C° 0.6 mm 2 mps 727 mmHg 82%
    11:00 +9°C° 0.1 mm 2 mps 727 mmHg 79%
    12:00 +10°C° 0.1 mm 2 mps 727 mmHg 76%
    13:00 +12°C° 0.1 mm 2 mps 727 mmHg 73%
    14:00 +12°C° 0.1 mm 2 mps 727 mmHg 73%
    15:00 +12°C° 0.1 mm 2 mps 727 mmHg 74%
    16:00 +10°C° 0.1 mm 2 mps 727 mmHg 75%
    17:00 +10°C° 0.1 mm 2 mps 727 mmHg 78%
    18:00 +9°C° 0.1 mm 2 mps 727 mmHg 80%
    19:00 +8°C° 0.1 mm 2 mps 728 mmHg 83%
    20:00 +8°C° 0 mm 2 mps 728 mmHg 84%
    21:00 +7°C° 0 mm 2 mps 728 mmHg 84%
    22:00 +7°C° 0 mm 2 mps 729 mmHg 84%
    23:00 +7°C° 0.1 mm 2 mps 729 mmHg 84%

    Tomorrow, 25 February, Sunday

    Time Temperature Precipitation Wind Pressure Humidity
    00:00 +6°C° 0.1 mm 2 mps 729 mmHg 84%
    01:00 +6°C° 0.1 mm 2 mps 729 mmHg 85%
    02:00 +6°C° 0.1 mm 2 mps 729 mmHg 85%
    03:00 +6°C° 0.1 mm 2 mps 729 mmHg 85%
    04:00 +6°C° 0.1 mm 2 mps 729 mmHg 84%
    05:00 +5°C° 0.3 mm 2 mps 729 mmHg 84%
    06:00 +4°C° 0.3 mm 3 mps 729 mmHg 84%
    07:00 +4°C° 0.3 mm 3 mps 729 mmHg 84%
    08:00 +5°C° 0.3 mm 3 mps 729 mmHg 81%
    09:00 +5°C° 0.3 mm 3 mps 730 mmHg 79%
    10:00 +7°C° 0.3 mm 3 mps 730 mmHg 77%
    11:00 +7°C° 0.5 mm 3 mps 729 mmHg 77%
    12:00 +8°C° 0.5 mm 3 mps 729 mmHg 77%
    13:00 +8°C° 0.5 mm 3 mps 729 mmHg 77%
    14:00 +8°C° 0.7 mm 3 mps 729 mmHg 79%
    15:00 +7°C° 0.7 mm 3 mps 728 mmHg 82%
    16:00 +7°C° 0.7 mm 3 mps 728 mmHg 84%
    17:00 +5°C° 1.5 mm 3 mps 728 mmHg 86%
    18:00 +4°C° 1.5 mm 3 mps 728 mmHg 87%
    19:00 +4°C° 1.5 mm 3 mps 727 mmHg 89%
    20:00 +3°C° 1.9 mm 3 mps 727 mmHg 89%
    21:00 +3°C° 1.9 mm 3 mps 727 mmHg 89%
    22:00 +3°C° 1.9 mm 3 mps 727 mmHg 89%
    23:00 +2°C° 1.1 mm 3 mps 726 mmHg 88%

    Day after tomorrow, 26 February, Monday

    Time Temperature Precipitation Wind Pressure Humidity
    00:00 +2°C° 1.1 mm 3 mps 726 mmHg 88%
    01:00 +1°C° 1.1 mm 4 mps 725 mmHg 87%
    02:00 +1°C° 1.7 mm 4 mps 725 mmHg 88%
    03:00 0°C° 1.7 mm 4 mps 724 mmHg 88%
    04:00 0°C° 1.7 mm 4 mps 724 mmHg 89%
    05:00 +1°C° 0.7 mm 3 mps 724 mmHg 88%
    06:00 +1°C° 0.7 mm 3 mps 724 mmHg 87%
    07:00 +1°C° 0.7 mm 3 mps 724 mmHg 87%
    08:00 +2°C° 0.2 mm 3 mps 724 mmHg 85%
    09:00 +2°C° 0.2 mm 3 mps 724 mmHg 84%
    10:00 +3°C° 0.2 mm 3 mps 724 mmHg 83%
    11:00 +4°C° 0.2 mm 3 mps 724 mmHg 83%
    12:00 +4°C° 0.2 mm 3 mps 724 mmHg 82%
    13:00 +6°C° 0.2 mm 2 mps 724 mmHg 82%
    14:00 +6°C° 0 mm 2 mps 724 mmHg 82%
    15:00 +6°C° 0 mm 2 mps 724 mmHg 81%
    16:00 +6°C° 0 mm 2 mps 724 mmHg 81%
    17:00 +5°C° 0 mm 2 mps 724 mmHg 82%
    18:00 +3°C° 0 mm 2 mps 725 mmHg 83%
    19:00 +1°C° 0 mm 3 mps 725 mmHg 84%
    20:00 +1°C° 0.1 mm 3 mps 725 mmHg 85%
    21:00 +1°C° 0.1 mm 3 mps 725 mmHg 85%
    22:00 +1°C° 0.1 mm 4 mps 725 mmHg 86%
    23:00 +1°C° 0.6 mm 4 mps 725 mmHg 88%

    27 February, Tuesday

    Time Temperature Precipitation Wind Pressure Humidity
    00:00 +3°C° 0.6 mm 4 mps 725 mmHg 90%
    01:00 +3°C° 0.6 mm 3 mps 725 mmHg 92%
    02:00 +3°C° 0.3 mm 3 mps 725 mmHg 92%
    03:00 +3°C° 0.3 mm 3 mps 725 mmHg 92%
    04:00 +3°C° 0.3 mm 3 mps 725 mmHg 92%
    05:00 +3°C° 0.2 mm 3 mps 726 mmHg 91%
    06:00 +4°C° 0.2 mm 2 mps 726 mmHg 91%
    07:00 +3°C° 0.2 mm 2 mps 726 mmHg 91%
    08:00 +4°C° 0.1 mm 2 mps 726 mmHg 88%
    09:00 +4°C° 0.1 mm 3 mps 727 mmHg 85%
    10:00 +5°C° 0.1 mm 3 mps 727 mmHg 82%
    11:00 +5°C° 0.4 mm 3 mps 727 mmHg 83%
    12:00 +5°C° 0.4 mm 3 mps 726 mmHg 84%
    13:00 +6°C° 0.4 mm 2 mps 726 mmHg 84%
    14:00 +7°C° 0.7 mm 2 mps 726 mmHg 85%
    15:00 +7°C° 0.7 mm 2 mps 726 mmHg 87%
    16:00 +7°C° 0.7 mm 2 mps 726 mmHg 88%
    17:00 +7°C° 0.5 mm 2 mps 726 mmHg 90%
    18:00 +6°C° 0.5 mm 2 mps 727 mmHg 91%
    19:00 +6°C° 0.5 mm 2 mps 727 mmHg 93%
    20:00 +6°C° 0.7 mm 2 mps 727 mmHg 94%
    21:00 +6°C° 0.7 mm 2 mps 727 mmHg 94%
    22:00 +6°C° 0.7 mm 2 mps 727 mmHg 95%
    23:00 +6°C° 0.6 mm 2 mps 727 mmHg 95%

    28 February, Wednesday

    Time Temperature Precipitation Wind Pressure Humidity
    00:00 +6°C° 0.6 mm 2 mps 727 mmHg 95%
    01:00 +6°C° 0.6 mm 2 mps 727 mmHg 95%
    02:00 +6°C° 0.1 mm 2 mps 727 mmHg 95%
    03:00 +5°C° 0.1 mm 2 mps 727 mmHg 94%
    04:00 +5°C° 0.1 mm 2 mps 728 mmHg 94%
    05:00 +4°C° 0 mm 2 mps 728 mmHg 92%
    06:00 +4°C° 0 mm 2 mps 729 mmHg 91%
    07:00 +3°C° 0 mm 2 mps 729 mmHg 89%
    08:00 +4°C° 0 mm 2 mps 730 mmHg 86%
    09:00 +5°C° 0 mm 2 mps 730 mmHg 82%
    10:00 +5°C° 0 mm 3 mps 731 mmHg 79%
    11:00 +7°C° 0 mm 3 mps 731 mmHg 77%
    12:00 +7°C° 0 mm 3 mps 731 mmHg 75%
    13:00 +8°C° 0 mm 3 mps 731 mmHg 73%
    14:00 +7°C° 0 mm 3 mps 732 mmHg 73%
    15:00 +7°C° 0 mm 3 mps 732 mmHg 72%
    16:00 +7°C° 0 mm 2 mps 733 mmHg 71%
    17:00 +6°C° 0 mm 2 mps 733 mmHg 72%
    18:00 +4°C° 0 mm 2 mps 734 mmHg 72%
    19:00 +4°C° 0 mm 1 mps 734 mmHg 73%
    20:00 +4°C° 0 mm 1 mps 735 mmHg 71%
    21:00 +4°C° 0 mm 1 mps 735 mmHg 69%
    22:00 +4°C° 0 mm 1 mps 736 mmHg 67%
    23:00 +4°C° 0 mm 1 mps 736 mmHg 65%

    1 March, Thursday

    Time Temperature Precipitation Wind Pressure Humidity
    00:00 +4°C° 0 mm 1 mps 736 mmHg 64%
    01:00 +4°C° 0 mm 1 mps 736 mmHg 63%
    02:00 +4°C° 0 mm 2 mps 736 mmHg 63%
    03:00 +4°C° 0 mm 2 mps 736 mmHg 63%
    04:00 +4°C° 0 mm 2 mps 736 mmHg 64%
    05:00 +4°C° 0 mm 2 mps 736 mmHg 65%
    06:00 +5°C° 0 mm 2 mps 736 mmHg 67%
    07:00 +5°C° 0 mm 2 mps 736 mmHg 68%
    08:00 +7°C° 0 mm 2 mps 737 mmHg 69%
    09:00 +9°C° 0 mm 2 mps 737 mmHg 70%
    10:00 +12°C° 0 mm 2 mps 737 mmHg 71%
    11:00 +12°C° 0 mm 2 mps 736 mmHg 71%
    12:00 +12°C° 0 mm 3 mps 736 mmHg 70%
    13:00 +13°C° 0 mm 3 mps 736 mmHg 70%
    14:00 +13°C° 0 mm 3 mps 735 mmHg 72%
    15:00 +12°C° 0 mm 3 mps 735 mmHg 75%
    16:00 +13°C° 0 mm 2 mps 735 mmHg 77%
    17:00 +11°C° 0 mm 3 mps 735 mmHg 80%
    18:00 +9°C° 0 mm 3 mps 735 mmHg 83%
    19:00 +8°C° 0 mm 3 mps 735 mmHg 86%
    20:00 +8°C° 0 mm 3 mps 735 mmHg 85%
    21:00 +8°C° 0 mm 3 mps 735 mmHg 84%
    22:00 +7°C° 0 mm 3 mps 735 mmHg 83%
    23:00 +7°C° 0 mm 3 mps 735 mmHg 80%
    Show more